Tracking 26321 objects as of 27-Nov-2022
HD Live streaming from Space Station
objects crossing your sky now

STARLINK-4437

Track STARLINK-4437 now!
10-day predictions
STARLINK-4437 is classified as:


NORAD ID: 53506
Int'l Code: 2022-099AT
Perigee: 568.6 km
Apogee: 571.6 km
Inclination: 97.7 °
Period: 95.9 minutes
Semi major axis: 6941 km
RCS: Unknown
Launch date: August 12, 2022
Source: United States (US)
Launch site: AIR FORCE WESTERN TEST RANGE (AFWTR)
aabbcc
Your satellite tracking list
Your tracking list is empty




NASA's NSSDC Master Catalog

Two Line Element Set (TLE):
1 53506U 22099AT  22330.59249193  .00003536  00000-0  27971-3 0  9999
2 53506  97.6549  89.5789 0002126  20.9867 339.1444 15.01268438 16328
Source of the keplerian elements: AFSPC